STARLINK-35004

Last updated on Tue Sep 16 2025 00:02:07 GMT+0000 (Coordinated Universal Time)

1 65428U 25192AA 25258.58341435 -.01480569 00000+0 -15608-1 0 9994 2 65428 53.1594 338.0381 0000938 78.4324 189.6027 15.66414781 3625
UTC large
Height (km)
Speed (km/s)
/
Latitude / Longitude
Inclination (degrees)
Orbital Period (minutes)
Azimuth
Elevation
Range (km)
Doppler Factor

Next 0 passes for location: London (51.5072 / 0.1276)

Sorry there are no passes over London.